| time (UTC) | temp C | wind direction | speed KPH | gust KPH | rain 1hr cm | rain 24hr cm | rain mn cm | humidity % | barometer mb |
| 20260510201347 | 18 | 69 | 1.6 | 14.5 | 0.00 | 0.00 | 0.00 | 99 | 1024.3 |
| 20260510200843 | 19 | 346 | 4.8 | 8.0 | 0.00 | 0.00 | 0.00 | 99 | 1024.3 |
| 20260510200342 | 19 | 114 | 3.2 | 8.0 | 0.00 | 0.00 | 0.00 | 99 | 1023.8 |
| 20260510195837 | 20 | 66 | 3.2 | 11.3 | 0.00 | 0.00 | 0.00 | 99 | 1024.5 |
| 20260510195334 | 20 | 0 | 3.2 | 6.4 | 0.00 | 0.00 | 0.00 | 99 | 1024.4 |
| 20260510194829 | 20 | 41 | 3.2 | 8.0 | 0.00 | 0.00 | 0.00 | 99 | 1024.0 |
| 20260510194325 | 20 | 14 | 0.0 | 9.7 | 0.00 | 0.00 | 0.00 | 99 | 1024.1 |
| 20260510193821 | 20 | 25 | 14.5 | 14.5 | 0.00 | 0.00 | 0.00 | 99 | 1024.3 |
| 20260510193316 | 20 | 49 | 0.0 | 14.5 | 0.00 | 0.00 | 0.00 | 99 | 1024.1 |
| 20260510192812 | 20 | 90 | 0.0 | 4.8 | 0.00 | 0.00 | 0.00 | 99 | 1023.4 |
| 20260510192307 | 20 | 99 | 3.2 | 4.8 | 0.00 | 0.00 | 0.00 | 99 | 1023.5 |
| 20260510191804 | 20 | 103 | 6.4 | 8.0 | 0.00 | 0.00 | 0.00 | 99 | 1023.3 |
| 20260510191300 | 20 | 209 | 1.6 | 8.0 | 0.00 | 0.00 | 0.00 | 99 | 1023.6 |
| 20260510190758 | 20 | 105 | 4.8 | 4.8 | 0.00 | 0.00 | 0.00 | 99 | 1023.5 |
| 20260510190255 | 19 | 126 | 1.6 | 6.4 | 0.00 | 0.00 | 0.00 | 99 | 1023.3 |
| 20260510185751 | 19 | 94 | 0.0 | 9.7 | 0.00 | 0.00 | 0.00 | 99 | 1023.4 |
| 20260510185249 | 19 | 121 | 3.2 | 6.4 | 0.00 | 0.00 | 0.00 | 99 | 1023.5 |
| 20260510184746 | 20 | 110 | 3.2 | 6.4 | 0.00 | 0.00 | 0.00 | 99 | 1023.5 |
| 20260510184243 | 19 | 130 | 4.8 | 6.4 | 0.00 | 0.00 | 0.00 | 99 | 1023.7 |
| 20260510183737 | 19 | 154 | 0.0 | 8.0 | 0.00 | 0.00 | 0.00 | 99 | 1023.4 |
| 20260510183232 | 19 | 90 | 0.0 | 11.3 | 0.00 | 0.00 | 0.00 | 99 | 1023.5 |
| 20260510182729 | 18 | 109 | 1.6 | 4.8 | 0.00 | 0.00 | 0.00 | 99 | 1023.5 |
| 20260510182225 | 18 | 144 | 3.2 | 4.8 | 0.00 | 0.00 | 0.00 | 99 | 1023.3 |
| 20260510181722 | 17 | 99 | 0.0 | 3.2 | 0.00 | 0.00 | 0.00 | 99 | 1023.0 |
| 20260510181219 | 17 | 109 | 0.0 | 4.8 | 0.00 | 0.00 | 0.00 | 99 | 1023.0 |
| 20260510180715 | 17 | 106 | 0.0 | 1.6 | 0.00 | 0.00 | 0.00 | 99 | 1023.0 |
| 20260510180212 | 17 | 70 | 0.0 | 3.2 | 0.00 | 0.00 | 0.00 | 99 | 1022.8 |
| 20260510175708 | 17 | 195 | 1.6 | 3.2 | 0.00 | 0.00 | 0.00 | 99 | 1022.6 |
| 20260510175204 | 17 | 110 | 3.2 | 4.8 | 0.00 | 0.00 | 0.00 | 99 | 1022.7 |
| 20260510174702 | 17 | 90 | 0.0 | 11.3 | 0.00 | 0.00 | 0.00 | 99 | 1022.6 |
| 20260510174159 | 17 | 33 | 4.8 | 4.8 | 0.00 | 0.00 | 0.00 | 99 | 1022.7 |
| 20260510173655 | 16 | 20 | 1.6 | 4.8 | 0.00 | 0.00 | 0.00 | 99 | 1022.7 |
| 20260510173151 | 16 | 133 | 4.8 | 4.8 | 0.00 | 0.00 | 0.00 | 99 | 1022.6 |
| 20260510172646 | 16 | 154 | 3.2 | 8.0 | 0.00 | 0.00 | 0.00 | 99 | 1023.1 |
| 20260510172143 | 16 | 234 | 0.0 | 11.3 | 0.00 | 0.00 | 0.00 | 99 | 1023.4 |
| 20260510171640 | 16 | 84 | 4.8 | 20.9 | 0.00 | 0.00 | 0.00 | 99 | 1023.8 |
| 20260510171137 | 16 | 357 | 6.4 | 14.5 | 0.00 | 0.00 | 0.00 | 99 | 1024.4 |
| 20260510170633 | 16 | 90 | 3.2 | 22.5 | 0.00 | 0.00 | 0.00 | 99 | 1024.3 |
| 20260510170130 | 16 | 353 | 6.4 | 24.1 | 0.00 | 0.00 | 0.00 | 99 | 1024.5 |
| 20260510165626 | 16 | 35 | 16.1 | 27.4 | 0.00 | 0.00 | 0.00 | 99 | 1024.4 |
| 20260510165121 | 16 | 34 | 20.9 | 43.5 | 0.00 | 0.00 | 0.00 | 99 | 1024.3 |
| 20260510164620 | 17 | 26 | 3.2 | 29.0 | 0.00 | 0.00 | 0.00 | 99 | 1023.7 |
| 20260510164116 | 18 | 45 | 14.5 | 46.7 | 0.00 | 0.00 | 0.00 | 99 | 1023.9 |
| 20260510163611 | 19 | 18 | 4.8 | 45.1 | 0.00 | 0.00 | 0.00 | 99 | 1023.3 |
| 20260510163108 | 20 | 18 | 22.5 | 37.0 | 0.00 | 0.00 | 0.00 | 99 | 1023.2 |
| 20260510162602 | 20 | 32 | 29.0 | 54.7 | 0.00 | 0.00 | 0.00 | 99 | 1023.6 |
| 20260510162059 | 25 | 327 | 4.8 | 14.5 | 0.00 | 0.00 | 0.00 | 99 | 1023.4 |
| 20260510161555 | 25 | 127 | 0.0 | 6.4 | 0.00 | 0.00 | 0.00 | 99 | 1021.9 |
| 20260510161052 | 25 | 111 | 0.0 | 6.4 | 0.00 | 0.00 | 0.00 | 99 | 1021.2 |
| 20260510160549 | 25 | 90 | 0.0 | 8.0 | 0.00 | 0.00 | 0.00 | 99 | 1021.1 |
| 20260510160048 | 25 | 192 | 1.6 | 8.0 | 0.00 | 0.00 | 0.00 | 99 | 1020.8 |
| 20260510155545 | 25 | 233 | 3.2 | 9.7 | 0.00 | 0.00 | 0.00 | 99 | 1020.6 |
| 20260510155042 | 25 | 154 | 1.6 | 11.3 | 0.00 | 0.00 | 0.00 | 99 | 1020.1 |
| 20260510154537 | 25 | 115 | 8.0 | 8.0 | 0.00 | 0.00 | 0.00 | 99 | 1019.9 |
| 20260510154033 | 25 | 101 | 4.8 | 4.8 | 0.00 | 0.00 | 0.00 | 99 | 1019.9 |
| 20260510153528 | 25 | 141 | 4.8 | 6.4 | 0.00 | 0.00 | 0.00 | 99 | 1020.1 |
| 20260510153025 | 24 | 236 | 4.8 | 4.8 | 0.00 | 0.00 | 0.00 | 99 | 1019.9 |
| 20260510152522 | 24 | 219 | 6.4 | 6.4 | 0.00 | 0.00 | 0.00 | 99 | 1019.8 |
| 20260510152018 | 23 | 222 | 0.0 | 14.5 | 0.00 | 0.00 | 0.00 | 99 | 1019.9 |
| 20260510151515 | 23 | 160 | 0.0 | 8.0 | 0.00 | 0.00 | 0.00 | 99 | 1019.8 |
| 20260510151013 | 23 | 259 | 0.0 | 9.7 | 0.00 | 0.00 | 0.00 | 99 | 1019.8 |
| 20260510150507 | 23 | 74 | 0.0 | 6.4 | 0.00 | 0.00 | 0.00 | 99 | 1020.0 |
| 20260510150004 | 22 | 139 | 3.2 | 8.0 | 0.00 | 0.00 | 0.00 | 99 | 1020.1 |
| 20260510145501 | 22 | 111 | 0.0 | 9.7 | 0.00 | 0.00 | 0.00 | 99 | 1019.9 |
| 20260510144957 | 21 | 131 | 3.2 | 8.0 | 0.00 | 0.00 | 0.00 | 99 | 1019.8 |
| 20260510144454 | 21 | 203 | 4.8 | 8.0 | 0.00 | 0.00 | 0.00 | 99 | 1020.0 |
| 20260510143949 | 21 | 225 | 0.0 | 12.9 | 0.00 | 0.00 | 0.00 | 99 | 1019.8 |
| 20260510143445 | 20 | 234 | 1.6 | 14.5 | 0.00 | 0.00 | 0.00 | 99 | 1019.7 |
| 20260510142942 | 20 | 210 | 0.0 | 9.7 | 0.00 | 0.00 | 0.00 | 99 | 1019.7 |
| 20260510142439 | 20 | 74 | 4.8 | 6.4 | 0.00 | 0.00 | 0.00 | 99 | 1020.0 |
| 20260510141935 | 19 | 90 | 0.0 | 11.3 | 0.00 | 0.00 | 0.00 | 99 | 1020.0 |
| 20260510141432 | 19 | 270 | 3.2 | 4.8 | 0.00 | 0.00 | 0.00 | 99 | 1020.4 |
| 20260510140929 | 18 | 270 | 0.0 | 8.0 | 0.00 | 0.00 | 0.00 | 99 | 1020.4 |
| 20260510140420 | 18 | 208 | 0.0 | 14.5 | 0.00 | 0.00 | 0.00 | 99 | 1020.3 |
| 20260510135919 | 18 | 212 | 3.2 | 8.0 | 0.00 | 0.00 | 0.00 | 99 | 1020.8 |
| 20260510135415 | 18 | 219 | 0.0 | 4.8 | 0.00 | 0.00 | 0.00 | 99 | 1020.8 |
| 20260510134913 | 18 | 180 | 0.0 | 8.0 | 0.00 | 0.00 | 0.00 | 99 | 1021.1 |
| 20260510134409 | 18 | 90 | 1.6 | 1.6 | 0.00 | 0.00 | 0.00 | 99 | 1021.3 |
| 20260510133905 | 17 | 220 | 0.0 | 4.8 | 0.00 | 0.00 | 0.00 | 99 | 1021.7 |
| 20260510133402 | 18 | 248 | 0.0 | 6.4 | 0.00 | 0.00 | 0.00 | 99 | 1021.6 |
| 20260510132857 | 18 | 220 | 0.0 | 0.0 | 0.00 | 0.00 | 0.00 | 99 | 1021.3 |
| 20260510132356 | 18 | 264 | 0.0 | 1.6 | 0.00 | 0.00 | 0.00 | 99 | 1021.3 |
| 20260510131852 | 18 | 222 | 4.8 | 4.8 | 0.00 | 0.00 | 0.00 | 99 | 1021.3 |
| 20260510131350 | 18 | 240 | 0.0 | 6.4 | 0.00 | 0.00 | 0.00 | 99 | 1021.3 |
| 20260510130846 | 18 | 245 | 3.2 | 4.8 | 0.00 | 0.00 | 0.00 | 99 | 1021.1 |
| 20260510130343 | 18 | 270 | 0.0 | 0.0 | 0.00 | 0.00 | 0.00 | 99 | 1021.2 |
| 20260510125840 | 18 | 270 | 0.0 | 0.0 | 0.00 | 0.00 | 0.00 | 99 | 1021.1 |
| 20260510125336 | 17 | 270 | 0.0 | 1.6 | 0.00 | 0.00 | 0.00 | 99 | 1021.2 |
| 20260510124834 | 17 | 194 | 0.0 | 0.0 | 0.00 | 0.00 | 0.00 | 99 | 1021.1 |
| 20260510124330 | 17 | 194 | 0.0 | 0.0 | 0.00 | 0.00 | 0.00 | 99 | 1021.0 |
| 20260510123826 | 17 | 194 | 0.0 | 0.0 | 0.00 | 0.00 | 0.00 | 99 | 1021.1 |
| 20260510123321 | 17 | 194 | 0.0 | 3.2 | 0.00 | 0.00 | 0.00 | 99 | 1020.9 |
| 20260510122818 | 17 | 270 | 0.0 | 3.2 | 0.00 | 0.00 | 0.00 | 99 | 1021.0 |
| 20260510122314 | 17 | 279 | 0.0 | 0.0 | 0.00 | 0.00 | 0.00 | 99 | 1021.0 |
| 20260510121810 | 17 | 279 | 0.0 | 0.0 | 0.00 | 0.00 | 0.00 | 99 | 1020.6 |
| 20260510121308 | 17 | 279 | 0.0 | 0.0 | 0.00 | 0.00 | 0.00 | 99 | 1020.6 |
| 20260510120805 | 17 | 278 | 0.0 | 1.6 | 0.00 | 0.00 | 0.00 | 99 | 1020.5 |
| 20260510120301 | 17 | 232 | 3.2 | 3.2 | 0.00 | 0.00 | 0.00 | 99 | 1020.6 |
| 20260510115757 | 17 | 254 | 0.0 | 3.2 | 0.00 | 0.00 | 0.00 | 99 | 1020.6 |
| 20260510115256 | 17 | 253 | 3.2 | 3.2 | 0.00 | 0.00 | 0.00 | 99 | 1020.5 |
| 20260510114756 | 17 | 278 | 0.0 | 1.6 | 0.00 | 0.00 | 0.00 | 99 | 1020.5 |
| 20260510114254 | 17 | 262 | 0.0 | 1.6 | 0.00 | 0.00 | 0.00 | 99 | 1020.5 |
| 20260510113754 | 17 | 270 | 0.0 | 0.0 | 0.00 | 0.00 | 0.00 | 99 | 1020.6 |
| 20260510113251 | 17 | 261 | 0.0 | 0.0 | 0.00 | 0.00 | 0.00 | 99 | 1020.3 |
| 20260510112747 | 17 | 264 | 0.0 | 3.2 | 0.00 | 0.00 | 0.00 | 99 | 1020.4 |
| 20260510112244 | 17 | 262 | 0.0 | 0.0 | 0.00 | 0.00 | 0.00 | 99 | 1020.5 |
| 20260510111740 | 17 | 261 | 0.0 | 1.6 | 0.00 | 0.00 | 0.00 | 99 | 1020.3 |
| 20260510111237 | 17 | 246 | 0.0 | 1.6 | 0.00 | 0.00 | 0.00 | 99 | 1020.3 |
| 20260510110737 | 17 | 278 | 0.0 | 1.6 | 0.00 | 0.00 | 0.00 | 99 | 1020.1 |
| 20260510110235 | 17 | 254 | 0.0 | 0.0 | 0.00 | 0.00 | 0.00 | 99 | 1019.9 |
| 20260510105734 | 17 | 254 | 0.0 | 0.0 | 0.00 | 0.00 | 0.00 | 99 | 1020.1 |
| 20260510105230 | 17 | 8 | 0.0 | 0.0 | 0.00 | 0.00 | 0.00 | 99 | 1020.0 |
| 20260510104726 | 17 | 8 | 0.0 | 0.0 | 0.00 | 0.00 | 0.00 | 99 | 1020.1 |
| 20260510104224 | 17 | 8 | 0.0 | 3.2 | 0.00 | 0.00 | 0.00 | 99 | 1019.7 |
| 20260510103720 | 17 | 270 | 0.0 | 3.2 | 0.00 | 0.00 | 0.00 | 99 | 1020.0 |
| 20260510103218 | 17 | 165 | 0.0 | 3.2 | 0.00 | 0.00 | 0.00 | 99 | 1019.6 |
| 20260510102717 | 17 | 250 | 0.0 | 4.8 | 0.00 | 0.00 | 0.00 | 99 | 1019.5 |
| 20260510102213 | 17 | 194 | 0.0 | 4.8 | 0.00 | 0.00 | 0.00 | 99 | 1019.4 |
| 20260510101711 | 17 | 115 | 0.0 | 3.2 | 0.00 | 0.00 | 0.00 | 99 | 1019.2 |
| 20260510101209 | 17 | 90 | 0.0 | 8.0 | 0.00 | 0.00 | 0.00 | 99 | 1019.6 |
| 20260510100704 | 17 | 115 | 3.2 | 4.8 | 0.00 | 0.00 | 0.00 | 99 | 1019.7 |
| 20260510100203 | 17 | 294 | 1.6 | 8.0 | 0.00 | 0.00 | 0.00 | 99 | 1019.7 |
| 20260510095658 | 17 | 154 | 3.2 | 3.2 | 0.00 | 0.00 | 0.00 | 99 | 1020.0 |
| 20260510095153 | 17 | 0 | 3.2 | 4.8 | 0.00 | 0.00 | 0.00 | 99 | 1019.6 |
| 20260510094651 | 17 | 209 | 0.0 | 4.8 | 0.00 | 0.00 | 0.00 | 99 | 1019.9 |
| 20260510094148 | 17 | 120 | 3.2 | 8.0 | 0.00 | 0.00 | 0.00 | 99 | 1019.6 |
| 20260510093644 | 17 | 171 | 4.8 | 11.3 | 0.00 | 0.00 | 0.00 | 99 | 1019.1 |
| 20260510093141 | 17 | 103 | 0.0 | 4.8 | 0.00 | 0.00 | 0.00 | 99 | 1019.7 |
| 20260510092638 | 18 | 129 | 3.2 | 16.1 | 0.00 | 0.00 | 0.00 | 99 | 1020.0 |
| 20260510092133 | 18 | 26 | 17.7 | 22.5 | 0.00 | 0.00 | 0.00 | 99 | 1020.7 |
| 20260510091629 | 20 | 49 | 9.7 | 30.6 | 0.00 | 0.00 | 0.00 | 99 | 1020.5 |
| 20260510091125 | 20 | 35 | 16.1 | 37.0 | 0.00 | 0.00 | 0.00 | 99 | 1019.6 |
| 20260510090617 | 20 | 62 | 16.1 | 35.4 | 0.00 | 0.00 | 0.00 | 99 | 1019.8 |
| 20260510090113 | 21 | 99 | 4.8 | 25.7 | 0.00 | 0.00 | 0.00 | 99 | 1019.5 |
| 20260510085608 | 21 | 10 | 4.8 | 27.4 | 0.00 | 0.00 | 0.00 | 99 | 1019.4 |
| 20260510085104 | 22 | 37 | 14.5 | 17.7 | 0.00 | 0.00 | 0.00 | 99 | 1019.4 |
| 20260510084600 | 22 | 27 | 9.7 | 9.7 | 0.00 | 0.00 | 0.00 | 99 | 1019.1 |
| 20260510084057 | 22 | 14 | 3.2 | 14.5 | 0.00 | 0.00 | 0.00 | 99 | 1019.1 |
| 20260510083553 | 22 | 52 | 6.4 | 8.0 | 0.00 | 0.00 | 0.00 | 99 | 1018.9 |
| 20260510083050 | 22 | 63 | 0.0 | 11.3 | 0.00 | 0.00 | 0.00 | 99 | 1018.3 |
| 20260510082547 | 22 | 15 | 0.0 | 4.8 | 0.00 | 0.00 | 0.00 | 99 | 1018.2 |
| 20260510082042 | 22 | 114 | 0.0 | 8.0 | 0.00 | 0.00 | 0.00 | 99 | 1018.1 |
| 20260510081537 | 22 | 19 | 3.2 | 6.4 | 0.00 | 0.00 | 0.00 | 99 | 1018.4 |
| 20260510081033 | 22 | 19 | 4.8 | 9.7 | 0.00 | 0.00 | 0.00 | 99 | 1018.7 |
| 20260510080532 | 22 | 42 | 4.8 | 8.0 | 0.00 | 0.00 | 0.00 | 99 | 1018.5 |
| 20260510080030 | 22 | 73 | 3.2 | 11.3 | 0.00 | 0.00 | 0.00 | 99 | 1018.2 |
| 20260510075527 | 22 | 24 | 3.2 | 6.4 | 0.00 | 0.00 | 0.00 | 99 | 1017.8 |
| 20260510075023 | 22 | 90 | 0.0 | 0.0 | 0.00 | 0.00 | 0.00 | 99 | 1017.7 |
| 20260510074521 | 22 | 78 | 0.0 | 3.2 | 0.00 | 0.00 | 0.00 | 99 | 1017.6 |
| 20260510074016 | 23 | 77 | 0.0 | 3.2 | 0.00 | 0.00 | 0.00 | 99 | 1017.2 |
| 20260510073513 | 23 | 90 | 0.0 | 3.2 | 0.00 | 0.00 | 0.00 | 99 | 1017.0 |
| 20260510073010 | 23 | 109 | 1.6 | 3.2 | 0.00 | 0.00 | 0.00 | 99 | 1016.9 |
| 20260510072506 | 23 | 66 | 0.0 | 3.2 | 0.00 | 0.00 | 0.00 | 99 | 1017.0 |
| 20260510072001 | 23 | 109 | 0.0 | 4.8 | 0.00 | 0.00 | 0.00 | 99 | 1016.6 |
| 20260510071458 | 23 | 97 | 0.0 | 3.2 | 0.00 | 0.00 | 0.00 | 99 | 1016.7 |
| 20260510070956 | 23 | 90 | 0.0 | 3.2 | 0.00 | 0.00 | 0.00 | 99 | 1016.6 |
| 20260510070453 | 23 | 106 | 1.6 | 4.8 | 0.00 | 0.00 | 0.00 | 99 | 1016.4 |
| 20260510065949 | 23 | 114 | 4.8 | 4.8 | 0.00 | 0.00 | 0.00 | 99 | 1016.3 |
| 20260510065446 | 23 | 109 | 0.0 | 4.8 | 0.00 | 0.00 | 0.00 | 99 | 1016.8 |
| 20260510064942 | 23 | 106 | 3.2 | 8.0 | 0.00 | 0.00 | 0.00 | 99 | 1017.9 |
| 20260510064440 | 23 | 59 | 3.2 | 8.0 | 0.00 | 0.00 | 0.00 | 99 | 1018.3 |
| 20260510063936 | 23 | 71 | 6.4 | 16.1 | 0.00 | 0.00 | 0.00 | 99 | 1018.2 |
| 20260510063432 | 23 | 105 | 4.8 | 14.5 | 0.00 | 0.00 | 0.00 | 99 | 1018.5 |
| 20260510062931 | 23 | 53 | 3.2 | 20.9 | 0.00 | 0.00 | 0.00 | 99 | 1018.6 |
| 20260510062430 | 23 | 28 | 6.4 | 12.9 | 0.00 | 0.00 | 0.00 | 99 | 1018.7 |
| 20260510061926 | 23 | 14 | 8.0 | 11.3 | 0.00 | 0.00 | 0.00 | 99 | 1018.5 |
| 20260510061423 | 23 | 121 | 3.2 | 12.9 | 0.00 | 0.00 | 0.00 | 99 | 1018.7 |
| 20260510060919 | 23 | 42 | 4.8 | 17.7 | 0.00 | 0.00 | 0.00 | 99 | 1018.6 |
| 20260510060416 | 23 | 17 | 8.0 | 9.7 | 0.00 | 0.00 | 0.00 | 99 | 1018.3 |
| 20260510055913 | 23 | 25 | 6.4 | 9.7 | 0.00 | 0.00 | 0.00 | 99 | 1017.6 |
| 20260510055408 | 23 | 75 | 0.0 | 3.2 | 0.00 | 0.00 | 0.00 | 99 | 1016.9 |
| 20260510054906 | 23 | 74 | 0.0 | 1.6 | 0.00 | 0.00 | 0.00 | 99 | 1016.6 |
| 20260510054402 | 23 | 98 | 0.0 | 3.2 | 0.00 | 0.00 | 0.00 | 99 | 1016.1 |
| 20260510053857 | 23 | 106 | 1.6 | 1.6 | 0.00 | 0.00 | 0.00 | 99 | 1016.2 |
| 20260510053353 | 23 | 106 | 0.0 | 1.6 | 0.00 | 0.00 | 0.00 | 99 | 1016.1 |
| 20260510052849 | 23 | 90 | 0.0 | 3.2 | 0.00 | 0.00 | 0.00 | 99 | 1016.0 |
| 20260510052345 | 23 | 84 | 0.0 | 3.2 | 0.00 | 0.00 | 0.00 | 99 | 1016.0 |
| 20260510051841 | 23 | 135 | 0.0 | 4.8 | 0.00 | 0.00 | 0.00 | 99 | 1015.7 |
| 20260510051338 | 23 | 98 | 0.0 | 4.8 | 0.00 | 0.00 | 0.00 | 99 | 1015.8 |
| 20260510050835 | 23 | 120 | 0.0 | 3.2 | 0.00 | 0.00 | 0.00 | 99 | 1015.7 |
| 20260510050332 | 23 | 98 | 0.0 | 1.6 | 0.00 | 0.00 | 0.00 | 99 | 1015.7 |
| 20260510045829 | 23 | 114 | 0.0 | 3.2 | 0.00 | 0.00 | 0.00 | 99 | 1015.8 |
| 20260510045326 | 23 | 106 | 0.0 | 3.2 | 0.00 | 0.00 | 0.00 | 99 | 1015.9 |
| 20260510044823 | 23 | 75 | 0.0 | 6.4 | 0.00 | 0.00 | 0.00 | 99 | 1015.6 |
| 20260510044320 | 23 | 114 | 4.8 | 4.8 | 0.00 | 0.00 | 0.00 | 99 | 1015.4 |
| 20260510043816 | 23 | 135 | 3.2 | 3.2 | 0.00 | 0.00 | 0.00 | 99 | 1015.2 |
| 20260510043312 | 23 | 246 | 0.0 | 3.2 | 0.00 | 0.00 | 0.00 | 99 | 1015.5 |
| 20260510042810 | 23 | 131 | 0.0 | 3.2 | 0.00 | 0.00 | 0.00 | 99 | 1015.0 |
| 20260510042307 | 22 | 114 | 0.0 | 0.0 | 0.00 | 0.00 | 0.00 | 99 | 1015.2 |
| 20260510041802 | 22 | 165 | 1.6 | 3.2 | 0.00 | 0.00 | 0.00 | 99 | 1015.5 |
| 20260510041259 | 22 | 106 | 1.6 | 3.2 | 0.00 | 0.00 | 0.00 | 99 | 1015.4 |
| 20260510040757 | 23 | 165 | 0.0 | 0.0 | 0.00 | 0.00 | 0.00 | 99 | 1015.5 |
| 20260510040248 | 23 | 90 | 0.0 | 0.0 | 0.00 | 0.00 | 0.00 | 99 | 1015.6 |
| 20260510035743 | 23 | 90 | 0.0 | 0.0 | 0.00 | 0.00 | 0.00 | 99 | 1015.7 |
| 20260510035239 | 23 | 90 | 0.0 | 0.0 | 0.00 | 0.00 | 0.00 | 99 | 1015.7 |
| 20260510034735 | 23 | 90 | 0.0 | 0.0 | 0.00 | 0.00 | 0.00 | 99 | 1015.7 |
| 20260510034233 | 23 | 105 | 0.0 | 0.0 | 0.00 | 0.00 | 0.00 | 99 | 1015.6 |
| 20260510033729 | 23 | 103 | 0.0 | 0.0 | 0.00 | 0.00 | 0.00 | 99 | 1015.6 |
| 20260510033227 | 23 | 106 | 0.0 | 0.0 | 0.00 | 0.00 | 0.00 | 99 | 1015.7 |
| 20260510032723 | 23 | 106 | 0.0 | 1.6 | 0.00 | 0.00 | 0.00 | 99 | 1015.7 |
| 20260510032219 | 23 | 106 | 0.0 | 0.0 | 0.00 | 0.00 | 0.00 | 99 | 1015.5 |
| 20260510031714 | 23 | 99 | 0.0 | 1.6 | 0.00 | 0.00 | 0.00 | 99 | 1015.5 |
| 20260510031210 | 23 | 117 | 0.0 | 0.0 | 0.00 | 0.00 | 0.00 | 99 | 1015.6 |
| 20260510030704 | 24 | 111 | 0.0 | 0.0 | 0.00 | 0.00 | 0.00 | 99 | 1015.7 |
| 20260510030202 | 24 | 97 | 0.0 | 1.6 | 0.00 | 0.00 | 0.00 | 99 | 1015.5 |
| 20260510025659 | 25 | 106 | 0.0 | 1.6 | 0.00 | 0.00 | 0.00 | 99 | 1015.6 |
| 20260510025156 | 25 | 101 | 0.0 | 3.2 | 0.00 | 0.00 | 0.00 | 99 | 1015.6 |
| 20260510024653 | 25 | 98 | 0.0 | 1.6 | 0.00 | 0.00 | 0.00 | 99 | 1015.5 |
| 20260510024149 | 25 | 114 | 1.6 | 3.2 | 0.00 | 0.00 | 0.00 | 99 | 1015.7 |
| 20260510023645 | 25 | 81 | 0.0 | 1.6 | 0.00 | 0.00 | 0.00 | 99 | 1015.8 |
| 20260510023142 | 25 | 90 | 0.0 | 1.6 | 0.00 | 0.00 | 0.00 | 99 | 1015.7 |
| 20260510022637 | 25 | 97 | 0.0 | 1.6 | 0.00 | 0.00 | 0.00 | 99 | 1015.6 |
| 20260510022132 | 25 | 99 | 0.0 | 1.6 | 0.00 | 0.00 | 0.00 | 99 | 1015.5 |
| 20260510021628 | 25 | 98 | 0.0 | 1.6 | 0.00 | 0.00 | 0.00 | 99 | 1015.4 |
| 20260510021126 | 25 | 96 | 0.0 | 3.2 | 0.00 | 0.00 | 0.00 | 99 | 1015.4 |
| 20260510020620 | 25 | 90 | 0.0 | 1.6 | 0.00 | 0.00 | 0.00 | 99 | 1015.2 |
| 20260510020115 | 25 | 114 | 0.0 | 3.2 | 0.00 | 0.00 | 0.00 | 99 | 1015.4 |
| 20260510015612 | 25 | 126 | 0.0 | 1.6 | 0.00 | 0.00 | 0.00 | 99 | 1015.2 |
| 20260510015108 | 26 | 99 | 1.6 | 3.2 | 0.00 | 0.00 | 0.00 | 99 | 1015.3 |
| 20260510014604 | 26 | 120 | 0.0 | 3.2 | 0.00 | 0.00 | 0.00 | 99 | 1015.2 |
| 20260510014101 | 26 | 90 | 0.0 | 3.2 | 0.00 | 0.00 | 0.00 | 99 | 1015.0 |
| 20260510013555 | 26 | 114 | 1.6 | 3.2 | 0.00 | 0.00 | 0.00 | 99 | 1014.8 |
| 20260510013052 | 26 | 126 | 0.0 | 1.6 | 0.00 | 0.00 | 0.00 | 99 | 1015.0 |
| 20260510012545 | 26 | 97 | 0.0 | 1.6 | 0.00 | 0.00 | 0.00 | 99 | 1014.8 |
| 20260510012043 | 26 | 106 | 0.0 | 3.2 | 0.00 | 0.00 | 0.00 | 99 | 1014.7 |
| 20260510011542 | 26 | 106 | 0.0 | 1.6 | 0.00 | 0.00 | 0.00 | 99 | 1014.7 |
| 20260510011038 | 27 | 117 | 1.6 | 3.2 | 0.00 | 0.00 | 0.00 | 99 | 1014.5 |
| 20260510010535 | 27 | 103 | 1.6 | 3.2 | 0.00 | 0.00 | 0.00 | 99 | 1014.6 |
| 20260510010032 | 27 | 96 | 3.2 | 3.2 | 0.00 | 0.00 | 0.00 | 99 | 1014.5 |
| 20260510005527 | 28 | 90 | 0.0 | 3.2 | 0.00 | 0.00 | 0.00 | 99 | 1014.5 |
| 20260510005026 | 28 | 101 | 0.0 | 3.2 | 0.00 | 0.00 | 0.00 | 99 | 1014.2 |
| 20260510004523 | 28 | 99 | 0.0 | 3.2 | 0.00 | 0.00 | 0.00 | 99 | 1014.5 |
| 20260510004021 | 28 | 83 | 1.6 | 3.2 | 0.00 | 0.00 | 0.00 | 99 | 1014.5 |
| 20260510003517 | 28 | 90 | 0.0 | 3.2 | 0.00 | 0.00 | 0.00 | 99 | 1014.5 |
| 20260510003013 | 29 | 90 | 0.0 | 3.2 | 0.00 | 0.00 | 0.00 | 99 | 1014.3 |
| 20260510002508 | 29 | 96 | 0.0 | 3.2 | 0.00 | 0.00 | 0.00 | 99 | 1014.3 |
| 20260510002005 | 30 | 103 | 3.2 | 4.8 | 0.00 | 0.00 | 0.00 | 99 | 1014.5 |
| 20260510001503 | 30 | 90 | 0.0 | 3.2 | 0.00 | 0.00 | 0.00 | 99 | 1014.3 |
| 20260510001001 | 30 | 69 | 0.0 | 4.8 | 0.00 | 0.00 | 0.00 | 99 | 1014.4 |
| 20260510000456 | 30 | 102 | 3.2 | 3.2 | 0.00 | 0.00 | 0.00 | 99 | 1014.4 |
| 20260509235953 | 30 | 90 | 0.0 | 3.2 | 0.00 | 0.00 | 0.00 | 99 | 1014.6 |
| 20260509235449 | 30 | 74 | 0.0 | 6.4 | 0.00 | 0.00 | 0.00 | 99 | 1014.4 |
| 20260509234946 | 30 | 104 | 4.8 | 4.8 | 0.00 | 0.00 | 0.00 | 99 | 1014.5 |
| 20260509234443 | 30 | 45 | 3.2 | 4.8 | 0.00 | 0.00 | 0.00 | 99 | 1014.8 |
| 20260509233941 | 30 | 98 | 0.0 | 4.8 | 0.00 | 0.00 | 0.00 | 99 | 1014.6 |
| 20260509233438 | 30 | 135 | 0.0 | 4.8 | 0.00 | 0.00 | 0.00 | 99 | 1014.7 |
| 20260509232934 | 30 | 99 | 0.0 | 4.8 | 0.00 | 0.00 | 0.00 | 99 | 1014.8 |
| 20260509232432 | 30 | 114 | 0.0 | 4.8 | 0.00 | 0.00 | 0.00 | 99 | 1014.7 |
| 20260509231927 | 30 | 69 | 1.6 | 4.8 | 0.00 | 0.00 | 0.00 | 99 | 1014.6 |
| 20260509231424 | 30 | 90 | 0.0 | 4.8 | 0.00 | 0.00 | 0.00 | 99 | 1014.6 |
| 20260509230922 | 30 | 120 | 0.0 | 4.8 | 0.00 | 0.00 | 0.00 | 99 | 1014.7 |
| 20260509230419 | 31 | 57 | 0.0 | 8.0 | 0.00 | 0.00 | 0.00 | 99 | 1014.6 |
| 20260509225915 | 30 | 148 | 3.2 | 8.0 | 0.00 | 0.00 | 0.00 | 99 | 1014.5 |
| 20260509225412 | 30 | 85 | 0.0 | 4.8 | 0.00 | 0.00 | 0.00 | 99 | 1014.6 |
| 20260509224908 | 30 | 106 | 3.2 | 6.4 | 0.00 | 0.00 | 0.00 | 99 | 1014.7 |
| 20260509224403 | 30 | 125 | 3.2 | 6.4 | 0.00 | 0.00 | 0.00 | 99 | 1014.5 |
| 20260509223901 | 31 | 132 | 0.0 | 6.4 | 0.00 | 0.00 | 0.00 | 99 | 1014.6 |
| 20260509223357 | 31 | 81 | 3.2 | 4.8 | 0.00 | 0.00 | 0.00 | 99 | 1014.5 |
| 20260509222854 | 30 | 58 | 4.8 | 4.8 | 0.00 | 0.00 | 0.00 | 99 | 1014.5 |
| 20260509222355 | 31 | 95 | 0.0 | 3.2 | 0.00 | 0.00 | 0.00 | 99 | 1014.5 |
| 20260509221850 | 30 | 75 | 3.2 | 3.2 | 0.00 | 0.00 | 0.00 | 99 | 1014.5 |
| 20260509221348 | 30 | 111 | 4.8 | 8.0 | 0.00 | 0.00 | 0.00 | 99 | 1014.4 |
| 20260509220843 | 30 | 129 | 3.2 | 4.8 | 0.00 | 0.00 | 0.00 | 99 | 1014.7 |
| 20260509220339 | 30 | 121 | 3.2 | 4.8 | 0.00 | 0.00 | 0.00 | 99 | 1014.5 |
| 20260509215835 | 30 | 8 | 1.6 | 8.0 | 0.00 | 0.00 | 0.00 | 99 | 1014.5 |
| 20260509215332 | 30 | 101 | 3.2 | 6.4 | 0.00 | 0.00 | 0.00 | 99 | 1014.4 |
| 20260509214829 | 30 | 108 | 3.2 | 4.8 | 0.00 | 0.00 | 0.00 | 99 | 1014.5 |
| 20260509214326 | 30 | 109 | 4.8 | 6.4 | 0.00 | 0.00 | 0.00 | 99 | 1014.5 |
| 20260509213823 | 30 | 120 | 3.2 | 4.8 | 0.00 | 0.00 | 0.00 | 99 | 1014.7 |
| 20260509213318 | 30 | 45 | 0.0 | 4.8 | 0.00 | 0.00 | 0.00 | 99 | 1014.6 |
| 20260509212816 | 30 | 97 | 4.8 | 6.4 | 0.00 | 0.00 | 0.00 | 99 | 1014.9 |
| 20260509212314 | 30 | 81 | 3.2 | 6.4 | 0.00 | 0.00 | 0.00 | 99 | 1015.2 |
| 20260509211809 | 30 | 60 | 1.6 | 4.8 | 0.00 | 0.00 | 0.00 | 99 | 1014.8 |
| 20260509211305 | 30 | 47 | 4.8 | 4.8 | 0.00 | 0.00 | 0.00 | 99 | 1014.7 |
| 20260509210802 | 30 | 115 | 3.2 | 6.4 | 0.00 | 0.00 | 0.00 | 99 | 1014.9 |
| 20260509210300 | 30 | 119 | 4.8 | 4.8 | 0.00 | 0.00 | 0.00 | 99 | 1014.9 |
| 20260509205759 | 30 | 58 | 4.8 | 8.0 | 0.00 | 0.00 | 0.00 | 99 | 1014.9 |
| 20260509205254 | 30 | 15 | 1.6 | 9.7 | 0.00 | 0.00 | 0.00 | 99 | 1015.2 |
| 20260509204750 | 30 | 95 | 3.2 | 4.8 | 0.00 | 0.00 | 0.00 | 99 | 1015.3 |
| 20260509204247 | 30 | 115 | 0.0 | 4.8 | 0.00 | 0.00 | 0.00 | 99 | 1015.2 |
| 20260509203743 | 30 | 129 | 4.8 | 4.8 | 0.00 | 0.00 | 0.00 | 99 | 1015.3 |
| 20260509203241 | 30 | 132 | 3.2 | 4.8 | 0.00 | 0.00 | 0.00 | 99 | 1015.3 |
| 20260509202736 | 30 | 115 | 3.2 | 6.4 | 0.00 | 0.00 | 0.00 | 99 | 1015.7 |
| 20260509202233 | 29 | 108 | 3.2 | 4.8 | 0.00 | 0.00 | 0.00 | 99 | 1015.5 |
| 20260509201727 | 30 | 114 | 4.8 | 4.8 | 0.00 | 0.00 | 0.00 | 99 | 1015.3 |